Location: Peterborough
(44.3091°N, 78.3197°W)
Time: 18:55:58
(UTC-04:00)

Vanguard 3 - Pass Details

Date: 24 March 2023
Orbit: 507 x 3246 km, 33.4° (Epoch: 06 June)

Event Time Altitude Azimuth Distance (km) Brightness Sun altitude
Exits shadow 03:49:18 34° 184° (S) 4,489 10.4 -33.5°
Maximum altitude 03:55:38 40° 152° (SSE) 4,158 10.5 -32.6°
Drops below altitude 10° 04:11:26 10° 91° (E) 5,537 11.9 -30.5°
Sets 04:15:32 0° 85° (E) 6,257 12.5 -29.9°
